QPF
0.00 0.00 0.00 0.00 0.00 0.00 0.00 0.00 0.00 0.00 0.00 0.00 0.00 0.00 0.00 0.00 0.00 0.00 0.00 0.00 0.01 0.00 0.00 0.00 0.00 0.00 0.00 0.03 0.03 0.00 0.00 0.00 0.00 0.00 0.00 0.00 0.00 0.00 0.00 0.00 0.00 0.00 0.00 0.00
0.00 0.00 0.00 0.00 0.00 0.00 0.00 0.00 0.00 0.00 0.00 0.00 0.00 0.00 0.00 0.00 0.00 0.01 0.00 0.00 0.00 0.00 0.00 0.00 0.00 0.00 0.00 0.00 0.02 0.02 0.01 0.00 0.00 0.00 0.00 0.00 0.00 0.00 0.00 0.00 0.00 0.00 0.00 0.00
0.00 0.00 0.00 0.00 0.00 0.00 0.00 0.00 0.00 0.00 0.00 0.00 0.00 0.00 0.00 0.00 0.00 0.00 0.00 0.00 0.00 0.00 0.00 0.00 0.00 0.00 0.00 0.00 0.04 0.04 0.02 0.01 0.00 0.00 0.00 0.00 0.00 0.00 0.00 0.00 0.00 0.00 0.00 0.00
0.00 0.00 0.00 0.00 0.00 0.00 0.00 0.00 0.00 0.00 0.00 0.00 0.00 0.00 0.00 0.00 0.00 0.00 0.00 0.00 0.00 0.00 0.00 0.00 0.00 0.00 0.00 0.05 0.15 0.04 0.05 0.02 0.00 0.01 0.00 0.00 0.00 0.00 0.00 0.00 0.00 0.00 0.00 0.00
0.00 0.00 0.00 0.00 0.00 0.00 0.00 0.00 0.00 0.00 0.00 0.00 0.00 0.00 0.00 0.00 0.00 0.00 0.00 0.00 0.00 0.00 0.00 0.00 0.00 0.00 0.02 0.04 0.13 0.05 0.02 0.02 0.02 0.01 0.00 0.00 0.00 0.00 0.00 0.00 0.00 0.00 0.00 0.00
0.00 0.00 0.00 0.00 0.00 0.00 0.00 0.00 0.00 0.00 0.00 0.00 0.00 0.00 0.00 0.00 0.00 0.00 0.00 0.00 0.00 0.00 0.00 0.00 0.00 0.00 0.02 0.07 0.09 0.01 0.00 0.00 0.00 0.00 0.00 0.00 0.00 0.00 0.00 0.00 0.00 0.00 0.00 0.00
0.00 0.00 0.00 0.00 0.00 0.00 0.00 0.00 0.00 0.00 0.00 0.00 0.00 0.00 0.00 0.00 0.00 0.00 0.00 0.00 0.00 0.00 0.00 0.00 0.00 0.02 0.04 0.05 0.03 0.00 0.00 0.00 0.00 0.00 0.00 0.00 0.00 0.00 0.00 0.00 0.00 0.00 0.00 0.00
0.00 0.00 0.00 0.00 0.00 0.00 0.00 0.00 0.00 0.00 0.00 0.00 0.00 0.00 0.00 0.00 0.00 0.00 0.00 0.00 0.00 0.00 0.00 0.00 0.01 0.02 0.04 0.05 0.01 0.00 0.00 0.00 0.00 0.00 0.00 0.00 0.00 0.00 0.00 0.00 0.00 0.00 0.00 0.00
0.00 0.00 0.00 0.00 0.00 0.00 0.00 0.00 0.00 0.00 0.00 0.00 0.00 0.00 0.00 0.00 0.00 0.00 0.00 0.00 0.00 0.00 0.00 0.00 0.00 0.01 0.02 0.02 0.01 0.00 0.00 0.00 0.00 0.00 0.00 0.00 0.00 0.00 0.00 0.00 0.00 0.00 0.00 0.00
0.00 0.00 0.00 0.00 0.00 0.00 0.00 0.00 0.00 0.00 0.00 0.00 0.00 0.00 0.00 0.00 0.00 0.00 0.00 0.00 0.00 0.00 0.00 0.00 0.00 0.00 0.00 0.00 0.00 0.00 0.00 0.00 0.00 0.00 0.00 0.00 0.00 0.00 0.00 0.00 0.00 0.00 0.00 0.00
0.00 0.00 0.00 0.00 0.00 0.00 0.00 0.00 0.00 0.00 0.00 0.00 0.00 0.00 0.00 0.00 0.00 0.00 0.00 0.00 0.00 0.00 0.00 0.00 0.00 0.00 0.00 0.00 0.00 0.00 0.00 0.00 0.00 0.00 0.00 0.00 0.00 0.00 0.00 0.00 0.00 0.00 0.00 0.00
0.00 0.00 0.00 0.00 0.00 0.00 0.00 0.00 0.02 0.00 0.00 0.00 0.00 0.00 0.00 0.00 0.00 0.00 0.00 0.00 0.00 0.00 0.00 0.00 0.00 0.00 0.00 0.00 0.00 0.00 0.00 0.00 0.00 0.00 0.00 0.00 0.00 0.00 0.00 0.00 0.00 0.00 0.00 0.00
0.00 0.00 0.00 0.00 0.00 0.00 0.00 0.00 0.00 0.00 0.00 0.00 0.00 0.00 0.00 0.00 0.00 0.00 0.00 0.00 0.00 0.00 0.00 0.00 0.00 0.00 0.00 0.00 0.00 0.00 0.00 0.00 0.00 0.00 0.00 0.00 0.00 0.00 0.00 0.00 0.00 0.00 0.00 0.00
0.00 0.00 0.00 0.00 0.00 0.00 0.00 0.00 0.00 0.00 0.00 0.00 0.00 0.00 0.00 0.00 0.00 0.00 0.00 0.00 0.00 0.00 0.00 0.00 0.00 0.00 0.00 0.00 0.00 0.00 0.00 0.00 0.00 0.00 0.00 0.00 0.00 0.00 0.00 0.00 0.00 0.00 0.00 0.00
0.00 0.00 0.00 0.00 0.00 0.00 0.00 0.00 0.00 0.00 0.00 0.00 0.00 0.00 0.00 0.00 0.00 0.00 0.00 0.00 0.00 0.00 0.00 0.00 0.00 0.00 0.00 0.00 0.00 0.00 0.00 0.00 0.00 0.00 0.00 0.00 0.00 0.00 0.00 0.00 0.00 0.00 0.00 0.00
0.00 0.00 0.00 0.00 0.00 0.00 0.00 0.00 0.00 0.00 0.00 0.00 0.00 0.00 0.00 0.00 0.00 0.00 0.00 0.00 0.00 0.00 0.00 0.00 0.00 0.00 0.00 0.00 0.01 0.01 0.00 0.00 0.00 0.00 0.00 0.00 0.00 0.00 0.00 0.00 0.00 0.00 0.00 0.00
0.00 0.00 0.00 0.00 0.00 0.00 0.00 0.00 0.00 0.00 0.00 0.00 0.00 0.00 0.00 0.00 0.00 0.00 0.00 0.00 0.00 0.00 0.00 0.00 0.00 0.00 0.00 0.00 0.00 0.00 0.00 0.00 0.00 0.00 0.00 0.00 0.00 0.00 0.00 0.00 0.00 0.00 0.00 0.00
0.00 0.00 0.00 0.00 0.00 0.00 0.00 0.00 0.00 0.00 0.00 0.00 0.00 0.00 0.00 0.00 0.00 0.00 0.00 0.00 0.00 0.00 0.00 0.00 0.00 0.00 0.00 0.00 0.00 0.00 0.00 0.00 0.00 0.00 0.00 0.00 0.00 0.00 0.00 0.00 0.00 0.00 0.00 0.00
0.02 0.02 0.00 0.00 0.00 0.00 0.00 0.00 0.00 0.00 0.00 0.00 0.00 0.00 0.00 0.00 0.00 0.00 0.00 0.00 0.00 0.00 0.00 0.00 0.00 0.00 0.00 0.00 0.00 0.00 0.00 0.00 0.00 0.00 0.00 0.00 0.00 0.00 0.00 0.01 0.01 0.00 0.00 0.00
0.01 0.01 0.00 0.00 0.00 0.00 0.00 0.00 0.00 0.00 0.00 0.00 0.00 0.00 0.00 0.00 0.00 0.00 0.00 0.00 0.00 0.00 0.00 0.00 0.00 0.00 0.00 0.00 0.00 0.00 0.00 0.00 0.00 0.00 0.00 0.00 0.00 0.02 0.05 0.05 0.01 0.00 0.00 0.00
0.00 0.00 0.00 0.00 0.00 0.00 0.00 0.00 0.00 0.00 0.00 0.00 0.00 0.00 0.00 0.00 0.00 0.00 0.00 0.00 0.00 0.00 0.00 0.00 0.00 0.00 0.00 0.00 0.00 0.00 0.00 0.00 0.00 0.00 0.02 0.05 0.08 0.09 0.05 0.01 0.00 0.00 0.00 0.00
0.00 0.00 0.00 0.00 0.00 0.00 0.00 0.00 0.00 0.00 0.00 0.00 0.00 0.00 0.00 0.00 0.00 0.00 0.00 0.00 0.00 0.00 0.00 0.00 0.00 0.00 0.00 0.00 0.00 0.00 0.00 0.01 0.02 0.05 0.08 0.09 0.05 0.01 0.00 0.00 0.00 0.00 0.00 0.00
0.00 0.00 0.00 0.00 0.00 0.00 0.00 0.00 0.00 0.00 0.00 0.00 0.00 0.00 0.00 0.00 0.00 0.00 0.00 0.00 0.00 0.00 0.00 0.00 0.00 0.00 0.00 0.00 0.00 0.00 0.00 0.00 0.01 0.03 0.02 0.00 0.00 0.00 0.00 0.00 0.00 0.00 0.00 0.00
0.00 0.00 0.00 0.00 0.00 0.00 0.00 0.00 0.00 0.00 0.00 0.00 0.00 0.00 0.00 0.00 0.00 0.00 0.00 0.00 0.00 0.00 0.00 0.00 0.00 0.00 0.00 0.00 0.00 0.00 0.00 0.00 0.00 0.00 0.00 0.00 0.00 0.00 0.00 0.00 0.00 0.00 0.00 0.00
0.00 0.00 0.00 0.00 0.00 0.00 0.00 0.00 0.00 0.00 0.00 0.00 0.00 0.00 0.00 0.00 0.00 0.00 0.00 0.00 0.00 0.00 0.00 0.00 0.00 0.00 0.00 0.00 0.00 0.00 0.00 0.00 0.00 0.00 0.00 0.00 0.00 0.00 0.00 0.00 0.00 0.00 0.00 0.00
0.00 0.00 0.00 0.00 0.00 0.00 0.00 0.00 0.00 0.00 0.00 0.00 0.00 0.00 0.00 0.00 0.00 0.00 0.00 0.00 0.00 0.00 0.00 0.00 0.00 0.00 0.00 0.00 0.00 0.00 0.00 0.00 0.00 0.00 0.00 0.00 0.00 0.00 0.00 0.00 0.00 0.00 0.00 0.00
MSLP
1011.36 1012.00 1012.01 1011.76 1011.54 1011.26 1011.07 1011.11 1011.15 1010.62 1010.03 1010.82 1011.50 1012.31 1012.59 1013.08 1013.40 1013.45 1013.78 1013.89 1014.30 1014.40 1014.67 1015.07 1015.62 1016.34 1016.75 1017.29 1017.61 1018.08 1018.66 1019.26 1019.61 1020.50 1020.94 1021.35 1021.57 1021.81 1022.13 1022.32 1022.42 1022.53 1022.64 1022.96
1011.95 1011.83 1011.39 1011.21 1011.08 1011.30 1011.67 1011.36 1010.64 1009.91 1009.40 1010.41 1011.73 1012.51 1012.83 1013.28 1013.00 1012.63 1013.10 1013.65 1014.03 1014.29 1014.34 1015.00 1015.45 1016.02 1016.54 1017.21 1017.71 1018.13 1018.48 1019.05 1019.53 1019.77 1020.10 1020.52 1021.13 1021.86 1022.12 1022.47 1022.70 1022.76 1022.80 1023.00
1011.50 1011.14 1010.89 1011.09 1011.14 1011.35 1011.16 1010.69 1010.38 1010.18 1009.76 1010.45 1011.68 1013.38 1013.86 1013.64 1013.51 1013.11 1012.82 1012.66 1012.91 1012.99 1013.48 1014.27 1014.86 1015.42 1016.35 1017.10 1017.38 1018.13 1018.64 1018.90 1019.08 1019.44 1020.07 1020.71 1021.33 1022.07 1022.74 1023.06 1023.03 1023.04 1023.07 1023.43
1011.07 1010.57 1010.64 1010.70 1010.87 1011.00 1010.77 1009.81 1010.14 1010.23 1010.81 1011.65 1012.00 1013.32 1013.49 1013.20 1013.20 1013.14 1012.61 1012.79 1012.78 1013.01 1013.20 1013.79 1014.56 1015.24 1015.64 1016.37 1017.29 1017.69 1018.31 1018.60 1019.10 1019.42 1019.92 1020.28 1021.03 1021.91 1022.60 1022.75 1022.95 1023.20 1023.41 1023.89
1010.83 1010.53 1010.68 1010.59 1010.35 1010.06 1010.00 1009.87 1010.42 1010.78 1011.76 1012.29 1012.44 1013.00 1012.50 1012.26 1012.45 1012.49 1012.19 1011.98 1012.17 1012.49 1012.59 1013.39 1013.93 1014.57 1015.88 1016.45 1016.84 1017.25 1018.23 1018.64 1019.14 1019.48 1019.74 1020.20 1021.09 1021.75 1022.28 1022.86 1023.25 1023.79 1024.17 1024.55
1010.49 1010.32 1010.06 1010.05 1009.87 1009.93 1010.04 1010.17 1011.08 1012.13 1013.02 1014.02 1013.91 1013.58 1012.62 1011.99 1010.75 1010.66 1011.01 1011.48 1012.04 1012.62 1013.02 1013.71 1014.43 1015.13 1016.05 1016.57 1017.07 1017.66 1018.08 1018.75 1019.07 1019.47 1019.92 1020.22 1020.97 1021.95 1022.75 1023.39 1023.91 1024.37 1024.94 1025.28
1010.76 1010.40 1009.82 1009.92 1010.07 1009.84 1010.07 1011.50 1012.87 1013.94 1014.77 1015.33 1014.46 1013.78 1012.04 1010.56 1009.97 1009.84 1010.00 1010.92 1011.33 1012.03 1013.11 1013.71 1014.57 1015.29 1016.12 1016.38 1017.04 1017.45 1018.05 1019.07 1019.43 1019.64 1020.20 1020.56 1021.14 1021.79 1022.55 1023.30 1023.94 1024.37 1024.79 1025.21
1011.30 1011.41 1010.62 1010.17 1010.64 1011.09 1011.21 1011.78 1013.55 1014.90 1015.89 1015.48 1014.32 1012.84 1010.56 1009.39 1009.04 1009.02 1009.60 1010.73 1011.28 1012.26 1013.01 1013.64 1014.24 1015.09 1015.73 1016.32 1016.97 1017.11 1017.84 1019.05 1019.59 1019.86 1020.66 1021.16 1021.62 1022.17 1022.81 1023.43 1024.01 1024.61 1024.96 1025.31
1011.59 1011.63 1011.10 1010.49 1010.33 1011.19 1011.58 1012.07 1012.66 1014.90 1016.49 1016.22 1014.49 1012.37 1010.13 1009.52 1009.26 1009.44 1010.49 1011.15 1011.84 1012.38 1012.87 1013.59 1014.38 1014.89 1015.66 1016.31 1016.78 1017.18 1017.82 1018.94 1019.62 1020.11 1020.75 1021.51 1022.10 1022.57 1023.08 1023.61 1023.97 1024.28 1024.78 1024.80
1011.26 1011.92 1011.51 1010.88 1010.47 1010.31 1011.18 1011.58 1012.85 1014.54 1016.29 1016.47 1014.77 1012.97 1011.06 1009.94 1009.63 1009.89 1010.77 1011.36 1011.87 1012.44 1012.96 1013.64 1014.26 1014.93 1015.33 1015.84 1016.40 1017.06 1017.66 1018.37 1019.38 1020.08 1020.65 1021.38 1021.97 1022.50 1022.99 1023.40 1023.81 1024.03 1024.15 1024.50
1011.21 1011.89 1012.35 1011.75 1010.61 1010.31 1010.70 1011.26 1012.45 1013.92 1015.36 1016.01 1015.28 1013.33 1010.87 1010.19 1009.86 1009.95 1010.08 1010.59 1011.34 1011.94 1012.53 1013.12 1013.66 1014.25 1014.67 1015.41 1016.00 1016.67 1017.39 1018.07 1018.90 1019.42 1020.01 1020.67 1021.43 1021.96 1022.39 1022.85 1023.30 1023.58 1023.76 1023.93
1010.51 1011.63 1012.40 1011.31 1009.90 1009.83 1010.53 1011.05 1011.99 1014.01 1015.52 1015.72 1015.03 1012.84 1010.69 1010.11 1009.63 1009.80 1010.03 1010.40 1010.72 1011.23 1011.78 1012.26 1012.78 1013.53 1014.28 1014.80 1015.46 1015.98 1016.64 1017.26 1017.86 1018.60 1019.38 1020.09 1020.73 1021.33 1021.89 1022.30 1022.71 1023.01 1023.26 1023.40
1010.14 1011.40 1012.06 1011.91 1011.47 1010.53 1010.41 1010.40 1011.20 1012.47 1013.97 1014.90 1014.70 1012.59 1010.35 1009.97 1009.81 1009.53 1009.83 1010.09 1010.31 1010.63 1011.37 1011.99 1012.75 1013.13 1013.50 1013.99 1014.57 1015.25 1015.94 1016.71 1017.55 1018.36 1019.13 1019.88 1020.35 1020.81 1021.31 1021.81 1022.24 1022.66 1023.01 1023.45
1009.36 1010.64 1011.52 1011.59 1011.08 1010.53 1010.32 1010.14 1010.75 1011.86 1013.47 1013.74 1013.30 1012.07 1010.82 1010.01 1009.79 1009.49 1009.47 1009.52 1009.88 1010.45 1011.13 1011.68 1012.27 1012.62 1013.00 1013.47 1014.09 1015.20 1016.02 1016.75 1017.46 1018.12 1018.79 1019.44 1019.91 1020.33 1020.70 1021.18 1021.89 1022.35 1022.73 1023.13
1009.89 1010.98 1011.43 1011.47 1011.08 1010.66 1010.48 1010.43 1010.42 1011.22 1011.76 1012.63 1011.93 1011.58 1010.14 1009.41 1009.01 1008.95 1009.28 1009.65 1009.88 1010.50 1011.07 1011.58 1012.21 1012.67 1013.20 1013.94 1014.58 1015.44 1016.08 1016.64 1017.08 1017.94 1018.50 1018.96 1019.33 1019.79 1020.56 1021.29 1021.86 1022.26 1022.63 1022.77
1010.09 1011.57 1012.34 1012.42 1012.00 1011.38 1010.83 1010.49 1010.35 1010.45 1010.66 1011.01 1011.11 1010.82 1009.85 1009.89 1009.71 1009.70 1009.75 1010.14 1010.53 1010.71 1010.91 1011.09 1011.80 1012.62 1013.15 1013.61 1014.34 1015.19 1015.83 1016.33 1016.93 1017.56 1018.04 1018.57 1019.29 1019.99 1020.66 1021.22 1021.72 1022.27 1022.39 1022.66
1011.19 1012.36 1013.70 1013.94 1013.18 1012.34 1011.79 1010.47 1009.96 1009.96 1009.99 1010.29 1010.81 1010.81 1010.52 1010.86 1011.04 1011.09 1010.91 1010.93 1011.32 1011.82 1011.91 1011.89 1012.02 1012.29 1012.80 1013.38 1013.93 1014.66 1015.32 1016.13 1016.89 1017.67 1018.26 1018.67 1019.26 1020.07 1020.75 1021.24 1021.53 1022.07 1022.57 1022.86
1011.59 1013.17 1014.36 1015.40 1014.81 1013.41 1011.09 1009.90 1009.50 1009.95 1010.36 1010.23 1010.67 1011.23 1011.15 1011.65 1012.14 1012.10 1012.31 1012.39 1012.77 1012.81 1012.83 1012.92 1012.68 1012.79 1012.99 1013.25 1013.88 1014.55 1015.44 1016.30 1017.09 1017.75 1018.35 1018.95 1019.64 1020.22 1020.59 1021.01 1021.38 1022.18 1022.76 1022.87
1011.49 1013.42 1015.61 1016.17 1015.72 1013.86 1011.37 1010.05 1009.70 1009.65 1011.35 1011.08 1011.19 1011.69 1011.79 1012.13 1012.42 1013.15 1013.30 1013.39 1013.75 1013.94 1014.18 1014.29 1014.24 1013.97 1013.79 1014.10 1014.77 1015.44 1016.37 1017.31 1018.26 1019.30 1020.03 1020.62 1020.93 1021.29 1021.93 1021.95 1021.99 1022.27 1022.33 1022.41
1012.75 1013.73 1015.38 1016.90 1016.33 1014.49 1011.53 1009.87 1009.39 1009.65 1011.32 1011.50 1011.51 1011.82 1012.13 1012.55 1013.56 1013.99 1014.17 1014.40 1014.79 1015.15 1015.35 1015.32 1015.34 1015.29 1015.35 1015.87 1015.75 1016.58 1017.87 1018.62 1019.65 1020.44 1020.89 1021.20 1021.48 1021.78 1022.01 1022.05 1022.26 1022.25 1021.86 1022.17
1014.19 1015.17 1016.23 1016.61 1015.69 1013.51 1010.84 1009.88 1009.71 1010.41 1011.61 1011.46 1011.70 1012.09 1012.42 1013.13 1013.73 1014.15 1014.71 1015.46 1015.93 1016.24 1016.57 1016.72 1016.68 1016.89 1017.51 1017.70 1017.53 1018.07 1019.04 1019.81 1020.46 1020.72 1021.19 1021.30 1021.73 1021.89 1022.03 1022.23 1022.26 1022.08 1022.00 1022.13
1013.49 1014.85 1015.75 1015.83 1014.89 1012.68 1010.04 1009.92 1010.16 1010.54 1011.10 1011.42 1011.77 1012.20 1013.00 1013.52 1014.18 1014.96 1015.74 1016.42 1017.03 1017.33 1017.62 1017.79 1017.87 1018.41 1018.74 1018.88 1018.97 1019.52 1019.88 1020.67 1020.81 1020.90 1021.34 1021.73 1021.87 1021.91 1021.97 1022.07 1022.07 1021.91 1021.90 1022.07
1012.32 1012.01 1012.93 1013.14 1012.03 1010.48 1009.70 1009.54 1009.74 1010.24 1010.99 1011.69 1011.97 1012.65 1012.99 1014.03 1015.04 1015.97 1016.86 1017.60 1018.12 1018.45 1018.70 1018.89 1018.82 1019.19 1019.58 1019.75 1019.96 1020.31 1020.85 1021.17 1021.42 1021.39 1021.69 1021.89 1021.91 1021.89 1021.89 1021.92 1021.87 1021.83 1021.72 1021.72
1010.75 1010.51 1011.10 1011.80 1010.88 1010.60 1010.34 1010.31 1010.40 1010.70 1011.34 1012.13 1012.48 1012.95 1013.53 1014.74 1016.02 1016.98 1017.76 1018.46 1018.99 1019.38 1019.61 1019.81 1019.95 1020.09 1020.42 1020.59 1020.83 1021.13 1021.33 1021.52 1021.68 1021.77 1021.88 1021.95 1022.00 1021.85 1021.65 1021.56 1021.43 1021.49 1021.40 1021.41
1009.56 1009.79 1010.28 1011.26 1011.56 1011.16 1011.42 1011.49 1011.70 1012.37 1012.89 1013.33 1013.88 1014.34 1014.96 1015.62 1017.14 1017.90 1018.80 1019.45 1019.96 1020.24 1020.50 1020.56 1020.80 1020.96 1021.14 1021.19 1021.35 1021.44 1021.57 1021.69 1021.86 1021.96 1022.03 1022.09 1022.09 1021.94 1021.66 1021.37 1021.20 1020.99 1020.64 1020.68
1008.71 1008.83 1009.62 1010.23 1010.17 1010.95 1012.33 1012.72 1012.94 1013.17 1014.11 1014.70 1014.87 1015.87 1016.54 1016.93 1017.91 1018.77 1019.57 1020.11 1020.48 1020.73 1020.99 1021.19 1021.31 1021.38 1021.53 1021.61 1021.69 1021.65 1021.62 1021.65 1021.82 1021.94 1021.93 1021.90 1021.83 1021.62 1021.35 1021.01 1020.53 1020.14 1019.85 1019.61
Thickness
5644 5626 5623 5636 5642 5650 5653 5644 5642 5654 5671 5665 5656 5648 5656 5659 5661 5663 5658 5660 5655 5656 5659 5660 5658 5652 5649 5645 5645 5641 5637 5633 5630 5619 5616 5614 5614 5612 5609 5605 5601 5597 5593 5587
5631 5626 5643 5653 5655 5650 5641 5640 5645 5661 5675 5668 5649 5647 5654 5653 5662 5668 5662 5658 5655 5655 5658 5655 5658 5656 5652 5646 5645 5640 5637 5630 5627 5625 5623 5620 5615 5607 5603 5598 5591 5586 5581 5575
5630 5644 5655 5652 5649 5642 5643 5645 5651 5655 5673 5665 5656 5637 5636 5648 5652 5660 5667 5671 5671 5671 5665 5659 5659 5660 5653 5646 5644 5637 5633 5632 5630 5627 5620 5613 5608 5600 5592 5585 5581 5576 5571 5563
5642 5657 5653 5648 5643 5646 5633 5666 5665 5666 5653 5636 5656 5617 5638 5648 5650 5654 5664 5666 5671 5669 5671 5666 5660 5655 5654 5649 5639 5638 5633 5631 5626 5623 5617 5613 5606 5596 5585 5581 5575 5567 5561 5553
5637 5648 5644 5643 5649 5661 5653 5670 5665 5666 5647 5646 5648 5633 5641 5653 5648 5654 5664 5671 5669 5674 5677 5670 5664 5660 5648 5643 5639 5638 5630 5626 5622 5618 5615 5608 5597 5589 5581 5572 5565 5557 5550 5541
5644 5656 5657 5652 5662 5664 5667 5665 5651 5642 5634 5602 5629 5625 5628 5643 5664 5670 5672 5671 5669 5666 5667 5664 5658 5652 5643 5639 5636 5629 5626 5620 5616 5612 5606 5601 5592 5581 5571 5560 5551 5541 5532 5524
5641 5647 5660 5663 5652 5659 5662 5637 5610 5608 5588 5591 5628 5623 5635 5662 5671 5676 5678 5670 5673 5669 5660 5658 5652 5646 5639 5638 5632 5631 5624 5613 5608 5605 5597 5591 5583 5573 5561 5549 5538 5530 5522 5512
5620 5613 5644 5657 5649 5639 5638 5636 5599 5605 5582 5607 5627 5619 5649 5679 5680 5684 5683 5669 5666 5661 5659 5656 5652 5644 5639 5636 5630 5629 5623 5609 5601 5596 5586 5578 5569 5559 5548 5539 5528 5516 5507 5499
5615 5622 5643 5650 5656 5645 5634 5628 5641 5602 5593 5594 5613 5639 5664 5673 5672 5676 5666 5665 5659 5655 5657 5653 5648 5644 5636 5630 5626 5622 5617 5605 5596 5586 5576 5565 5555 5545 5536 5526 5518 5510 5500 5493
5629 5618 5634 5645 5656 5655 5640 5649 5621 5606 5595 5592 5614 5620 5632 5659 5668 5668 5661 5657 5656 5655 5655 5650 5646 5640 5637 5632 5625 5617 5611 5601 5588 5577 5568 5557 5547 5536 5527 5519 5510 5503 5496 5486
5628 5621 5618 5635 5639 5636 5637 5632 5633 5622 5599 5591 5583 5606 5646 5654 5660 5662 5662 5662 5659 5658 5655 5651 5648 5643 5639 5630 5622 5614 5604 5594 5583 5574 5563 5553 5542 5532 5523 5514 5506 5497 5489 5480
5637 5619 5590 5623 5651 5654 5644 5636 5629 5588 5609 5583 5579 5607 5654 5654 5658 5657 5656 5661 5663 5662 5658 5655 5651 5645 5637 5631 5622 5614 5604 5594 5583 5572 5560 5548 5537 5526 5517 5508 5500 5490 5480 5471
5637 5615 5585 5604 5624 5638 5637 5642 5639 5622 5598 5596 5576 5601 5654 5652 5655 5656 5652 5655 5660 5659 5652 5648 5641 5639 5634 5629 5621 5612 5603 5590 5576 5564 5552 5540 5530 5520 5511 5501 5491 5481 5471 5460
5643 5624 5610 5591 5614 5629 5631 5643 5637 5622 5584 5595 5592 5622 5639 5645 5644 5651 5656 5653 5655 5655 5647 5641 5635 5631 5626 5619 5610 5597 5585 5575 5564 5553 5542 5531 5521 5513 5503 5493 5482 5471 5461 5450
5632 5619 5624 5624 5632 5635 5631 5633 5639 5625 5621 5601 5619 5617 5640 5649 5652 5649 5652 5651 5649 5644 5639 5632 5624 5619 5612 5603 5595 5582 5571 5563 5554 5542 5531 5522 5515 5505 5492 5480 5470 5460 5449 5439
5633 5610 5619 5618 5617 5621 5624 5624 5628 5628 5633 5623 5626 5625 5641 5639 5641 5641 5647 5641 5635 5633 5635 5629 5619 5609 5603 5597 5586 5574 5563 5554 5544 5534 5525 5516 5503 5491 5480 5469 5458 5446 5437 5425
5616 5597 5586 5594 5594 5601 5582 5613 5621 5627 5630 5629 5614 5625 5628 5624 5625 5626 5627 5628 5622 5617 5617 5617 5614 5609 5601 5589 5580 5570 5558 5546 5535 5524 5514 5503 5492 5479 5467 5456 5445 5432 5418 5406
5603 5593 5570 5567 5572 5562 5611 5626 5626 5617 5615 5619 5617 5616 5619 5615 5611 5611 5611 5609 5606 5607 5606 5604 5601 5596 5588 5580 5570 5558 5546 5533 5522 5511 5500 5489 5478 5466 5456 5444 5431 5415 5400 5390
5615 5584 5567 5561 5559 5584 5610 5621 5616 5615 5602 5611 5610 5611 5611 5609 5607 5600 5602 5598 5594 5587 5580 5575 5570 5569 5567 5561 5550 5540 5527 5513 5498 5484 5474 5464 5454 5443 5431 5421 5409 5398 5390 5380
5594 5580 5572 5545 5556 5554 5593 5616 5628 5619 5579 5607 5606 5607 5606 5602 5566 5584 5590 5583 5572 5565 5560 5555 5550 5547 5544 5536 5531 5518 5501 5489 5474 5463 5454 5445 5436 5427 5415 5408 5399 5388 5381 5368
5554 5550 5548 5511 5530 5561 5601 5615 5620 5587 5585 5607 5602 5599 5601 5593 5585 5586 5572 5563 5556 5548 5540 5534 5530 5523 5513 5507 5503 5492 5479 5468 5459 5450 5438 5431 5421 5412 5402 5392 5383 5375 5365 5353
5574 5550 5531 5543 5533 5566 5610 5613 5597 5597 5603 5602 5601 5597 5586 5584 5579 5569 5559 5548 5537 5528 5521 5515 5510 5501 5493 5487 5482 5471 5462 5450 5444 5437 5426 5415 5406 5398 5389 5379 5368 5359 5350 5339
5582 5583 5567 5572 5574 5601 5611 5613 5612 5608 5602 5597 5592 5587 5583 5574 5562 5549 5536 5523 5514 5507 5500 5495 5491 5482 5474 5467 5460 5452 5443 5434 5426 5419 5409 5399 5391 5383 5374 5364 5356 5344 5334 5322
5601 5600 5583 5585 5602 5602 5600 5601 5601 5600 5593 5584 5581 5576 5570 5554 5539 5526 5516 5505 5497 5489 5483 5476 5471 5463 5454 5448 5441 5433 5425 5417 5409 5401 5393 5384 5375 5368 5360 5350 5341 5331 5318 5309
5597 5599 5594 5584 5586 5590 5586 5585 5583 5575 5567 5561 5555 5551 5544 5535 5517 5507 5496 5487 5477 5470 5463 5457 5449 5444 5437 5431 5425 5418 5410 5401 5392 5383 5376 5368 5359 5351 5343 5335 5326 5317 5311 5303
5601 5596 5579 5575 5593 5584 5572 5566 5562 5559 5548 5541 5537 5525 5517 5510 5498 5487 5476 5468 5460 5452 5446 5439 5433 5427 5422 5416 5409 5401 5394 5386 5378 5369 5360 5351 5343 5334 5328 5321 5316 5307 5302 5297